Location: Newark
(46.7636°N, 1.8358°W)
Time: 05:50:10
(UTC+00:00)

SR - Visible Passes

Search period start: 22 October 2019 00:00
Search period end: 01 November 2019 00:00
Orbit: 574 x 881 km, 66.7° (Epoch: 21 October)

Date Brightness Start Highest point End Pass type
(mag) Time Alt. Az. Time Alt. Az. Time Alt. Az.
22 Oct ? 03:44:40 10° N 03:47:49 15° NNE 03:50:58 10° NE visible
22 Oct ? 05:25:58 10° NNW 05:31:32 41° NE 05:37:06 10° ESE visible
23 Oct ? 02:55:25 10° N 02:57:17 11° NNE 02:59:09 10° NNE visible
23 Oct ? 04:36:31 10° NNW 04:41:28 27° NE 04:46:28 10° E visible
24 Oct ? 03:47:07 10° NNW 03:51:14 19° NNE 03:55:23 10° ENE visible
24 Oct ? 05:28:37 10° NNW 05:34:30 64° NE 05:40:22 10° SE visible
25 Oct ? 02:58:40 12° N 03:00:50 14° NNE 03:03:54 10° NE visible
25 Oct ? 04:39:05 10° NNW 04:44:36 40° NE 04:50:08 10° ESE visible
26 Oct ? 02:10:42 11° NNE 02:10:42 11° NNE 02:12:04 10° NNE visible
26 Oct ? 03:50:08 12° NNW 03:54:32 26° NE 03:59:28 10° E visible
26 Oct ? 05:31:22 10° NW 05:37:20 82° WSW 05:43:13 10° SSE visible
27 Oct ? 03:02:17 16° N 03:04:16 19° NNE 03:08:20 10° ENE visible
27 Oct ? 04:41:43 10° NNW 04:47:36 61° NE 04:53:26 10° SE visible
28 Oct ? 02:14:33 14° NNE 02:14:33 14° NNE 02:16:50 10° NE visible
28 Oct ? 03:54:01 19° NNW 03:57:41 38° NE 04:03:10 10° ESE visible
28 Oct ? 05:34:17 10° NW 05:40:00 49° WSW 05:45:36 10° S visible
29 Oct ? 03:06:27 24° NNE 03:07:35 26° NE 03:12:27 10° E visible
29 Oct ? 04:45:55 18° NW 04:50:26 85° WSW 04:56:19 10° SSE visible
29 Oct ? 19:17:28 10° S 19:17:33 10° S 19:17:33 10° S visible
30 Oct ? 02:19:03 16° NE 02:19:03 16° NE 02:21:18 10° ENE visible
30 Oct ? 03:58:32 38° N 04:00:40 58° NE 04:06:29 10° SE visible
30 Oct ? 05:38:01 12° NW 05:42:31 29° WSW 05:47:27 10° SSW visible
30 Oct ? 18:29:16 10° SSE 18:30:40 15° SE 18:30:40 15° SE visible
30 Oct ? 20:09:08 10° SW 20:10:10 16° SW 20:10:10 16° SW visible
31 Oct ? 03:11:20 36° ENE 03:11:20 36° ENE 03:16:11 10° ESE visible
31 Oct ? 04:50:49 34° WNW 04:53:06 52° WSW 04:58:45 10° S visible
31 Oct ? 19:19:34 10° SSW 19:23:11 45° S 19:23:11 45° S visible
